Погода в Николаевке

Россия / Республика Мордовия     54°08′45″N   45°08′36″E
темп.,
°C
ветер,
м/с
пор.,
м/с
влажн.,
%
обл.,
%
осадки,
мм/ч
давл.,
гПа
погр.,
м
20 апреля, вт
вт2000:00+4в6136794 0.0 1024622
03:00+3в6146692 0.0 1025580
06:00+2в71468100 0.0 1025658
09:00+6вюв9125466 0.0 1024922
12:00+6вюв81352100 0.0 1024970
15:00+9вюв91449100 0.0 10221202
18:00+8юв81448100 0.0 10211213
21:00+7юв91659100 0.4 10201152
21 апреля, ср
ср2100:00+5вюв112174100 3.4 1016963
03:00+4юв122282100 6.3 1015984
06:00+5юв11208264 1.9 1014896
09:00+6ююв101871100 1.9 1014904
12:00+7ююв101879100 0.0 1014900
15:00+7ююв91582100 0.0 10141041
18:00+6ююв81691100 0.1 1014736
21:00+7ююз71293100 0.8 10151005
22 апреля, чт
чт2200:00+6ю41093100 0.1 1018397
03:00+6ю499596 0.3 1018362
06:00+6ю4109667 0.1 1020387
09:00+9ю798262 0.3 1020654
12:00+12ююз71164100 0.6 10201652
15:00+12зюз7105844 1.5 10201670
18:00+10з466712 0.1 1022485
21:00+7зюз22811 0.1 102322
23 апреля, пт
пт2300:00+6ююв22799 0.0 102314
03:00+5ююв338441 0.0 102432
06:00+6ююв36835 0.0 1024116
09:00+11ююв4661100 0.0 1024417
12:00+15ю344483 0.0 10231839
15:00+15вюв3350100 0.0 1022623
18:00+13вюв3660100 0.0 1022125
21:00+10юв4870100 0.0 1021183
24 апреля, сб
сб2400:00+9юв3781100 0.0 1020165
03:00+8юв2483100 0.1 1018121
06:00+7вюв2688100 0.0 1017182
09:00+10вюв3568100 0.0 1016668
12:00+13юв4454100 0.0 10131379
15:00+15ююв354556 0.0 10111912
18:00+12юв61064100 0.1 1010452
21:00+9зсз2490100 5.0 1010316